Time,TemperatureF,DewpointF,PressureIn,WindDirection,WindDirectionDegrees,WindSpeedMPH,WindSpeedGustMPH,Humidity,HourlyPrecipIn,Conditions,Clouds,dailyrainin,SoftwareType,DateUTC
2015-07-05 00:00:00,80.6,77.4,30.04,West,271,13.0,18.0,90,0.00,,,0.00,WUHU216DAVISVP2,2015-07-05 04:00:00,
2015-07-05 00:05:00,80.7,77.5,30.04,West,269,7.6,17.0,90,0.00,,,0.00,WUHU216DAVISVP2,2015-07-05 04:05:00,
2015-07-05 00:10:00,80.6,77.1,30.04,WNW,285,12.0,17.0,89,0.00,,,0.00,WUHU216DAVISVP2,2015-07-05 04:10:00,
2015-07-05 00:15:00,80.7,77.2,30.03,West,268,12.8,20.0,89,0.00,,,0.00,WUHU216DAVISVP2,2015-07-05 04:15:00,
2015-07-05 00:20:00,80.7,76.8,30.04,West,268,8.8,20.0,88,0.00,,,0.00,WUHU216DAVISVP2,2015-07-05 04:20:00,
2015-07-05 00:25:00,80.8,76.9,30.03,West,265,10.0,20.0,88,0.00,,,0.00,WUHU216DAVISVP2,2015-07-05 04:25:00,
2015-07-05 00:30:00,80.7,76.8,30.04,WNW,283,13.0,20.0,88,0.00,,,0.00,WUHU216DAVISVP2,2015-07-05 04:30:00,
2015-07-05 00:35:00,80.7,76.5,30.04,West,267,11.8,20.0,87,0.00,,,0.00,WUHU216DAVISVP2,2015-07-05 04:35:00,
2015-07-05 00:40:00,80.7,76.2,30.04,West,266,13.0,19.0,86,0.00,,,0.00,WUHU216DAVISVP2,2015-07-05 04:40:00,
2015-07-05 00:45:00,80.7,75.5,30.04,West,271,13.0,19.0,84,0.00,,,0.00,WUHU216DAVISVP2,2015-07-05 04:45:00,
2015-07-05 00:50:00,80.8,75.6,30.04,West,270,9.2,17.0,84,0.00,,,0.00,WUHU216DAVISVP2,2015-07-05 04:50:00,
2015-07-05 00:55:00,80.8,75.2,30.04,West,275,9.8,17.0,83,0.00,,,0.00,WUHU216DAVISVP2,2015-07-05 04:55:00,
2015-07-05 01:00:00,80.8,74.9,30.04,West,278,10.0,18.0,82,0.00,,,0.00,WUHU216DAVISVP2,2015-07-05 05:00:00,
2015-07-05 01:05:00,80.8,74.5,30.04,WNW,285,8.5,18.0,81,0.00,,,0.00,WUHU216DAVISVP2,2015-07-05 05:05:00,
2015-07-05 01:10:00,80.7,74.1,30.04,WNW,285,11.0,18.0,80,0.00,,,0.00,WUHU216DAVISVP2,2015-07-05 05:10:00,
2015-07-05 01:15:00,80.8,74.2,30.04,WNW,292,10.0,18.0,80,0.00,,,0.00,WUHU216DAVISVP2,2015-07-05 05:15:00,
2015-07-05 01:20:00,80.8,73.8,30.04,WNW,285,10.4,16.0,79,0.00,,,0.00,WUHU216DAVISVP2,2015-07-05 05:20:00,
2015-07-05 01:25:00,80.8,73.8,30.04,West,270,10.2,19.0,79,0.00,,,0.00,WUHU216DAVISVP2,2015-07-05 05:25:00,
2015-07-05 01:30:00,80.7,74.1,30.04,West,275,8.8,19.0,80,0.00,,,0.00,WUHU216DAVISVP2,2015-07-05 05:30:00,
2015-07-05 01:35:00,80.7,74.1,30.04,West,264,8.0,19.0,80,0.00,,,0.00,WUHU216DAVISVP2,2015-07-05 05:35:00,
2015-07-05 01:40:00,80.6,74.0,30.04,West,278,10.4,16.0,80,0.00,,,0.00,WUHU216DAVISVP2,2015-07-05 05:40:00,
2015-07-05 01:45:00,80.6,74.0,30.04,West,278,11.3,17.0,80,0.00,,,0.00,WUHU216DAVISVP2,2015-07-05 05:45:00,
2015-07-05 01:50:00,80.6,73.6,30.04,WNW,293,16.0,20.0,79,0.00,,,0.00,WUHU216DAVISVP2,2015-07-05 05:50:00,
2015-07-05 01:55:00,80.6,73.6,30.04,West,271,11.0,20.0,79,0.00,,,0.00,WUHU216DAVISVP2,2015-07-05 05:55:00,
2015-07-05 02:00:00,80.5,73.1,30.04,West,273,13.0,20.0,78,0.00,,,0.00,WUHU216DAVISVP2,2015-07-05 06:00:00,
2015-07-05 02:05:00,80.4,72.7,30.04,West,279,10.5,20.0,77,0.00,,,0.00,WUHU216DAVISVP2,2015-07-05 06:05:00,
2015-07-05 02:10:00,80.3,73.0,30.04,West,277,7.3,17.0,78,0.00,,,0.00,WUHU216DAVISVP2,2015-07-05 06:10:00,
2015-07-05 02:15:00,80.2,72.9,30.04,West,271,9.0,17.0,78,0.00,,,0.00,WUHU216DAVISVP2,2015-07-05 06:15:00,
2015-07-05 02:20:00,80.1,72.4,30.04,WSW,246,10.0,16.0,77,0.00,,,0.00,WUHU216DAVISVP2,2015-07-05 06:20:00,
2015-07-05 02:25:00,80.0,72.3,30.04,West,266,8.2,14.0,77,0.00,,,0.00,WUHU216DAVISVP2,2015-07-05 06:25:00,
2015-07-05 02:30:00,79.9,72.6,30.04,West,266,7.8,14.0,78,0.00,,,0.00,WUHU216DAVISVP2,2015-07-05 06:30:00,
2015-07-05 02:35:00,79.8,72.8,30.04,West,271,8.0,14.0,79,0.00,,,0.00,WUHU216DAVISVP2,2015-07-05 06:35:00,
2015-07-05 02:40:00,79.6,73.0,30.04,West,275,8.3,14.0,80,0.00,,,0.00,WUHU216DAVISVP2,2015-07-05 06:40:00,
2015-07-05 02:45:00,79.5,72.8,30.04,West,279,6.8,14.0,80,0.00,,,0.00,WUHU216DAVISVP2,2015-07-05 06:45:00,
2015-07-05 02:50:00,79.4,72.7,30.04,West,270,8.6,14.0,80,0.00,,,0.00,WUHU216DAVISVP2,2015-07-05 06:50:00,
2015-07-05 02:55:00,79.3,72.6,30.04,WSW,252,11.0,13.0,80,0.00,,,0.00,WUHU216DAVISVP2,2015-07-05 06:55:00,
2015-07-05 03:00:00,79.3,72.7,30.04,WNW,285,9.8,15.0,80,0.00,,,0.00,WUHU216DAVISVP2,2015-07-05 07:00:00,
2015-07-05 03:05:00,79.2,72.6,30.04,West,278,7.2,15.0,80,0.00,,,0.00,WUHU216DAVISVP2,2015-07-05 07:05:00,
2015-07-05 03:10:00,79.1,72.5,30.04,WNW,285,12.0,15.0,80,0.00,,,0.00,WUHU216DAVISVP2,2015-07-05 07:10:00,
2015-07-05 03:15:00,79.1,72.5,30.05,West,280,8.0,15.0,80,0.00,,,0.00,WUHU216DAVISVP2,2015-07-05 07:15:00,
2015-07-05 03:20:00,79.0,72.1,30.05,WNW,282,8.8,13.0,79,0.00,,,0.00,WUHU216DAVISVP2,2015-07-05 07:20:00,
2015-07-05 03:25:00,79.0,72.1,30.05,WNW,299,9.0,13.0,79,0.00,,,0.00,WUHU216DAVISVP2,2015-07-05 07:25:00,
2015-07-05 03:30:00,79.1,72.2,30.05,WNW,294,9.0,13.0,79,0.00,,,0.00,WUHU216DAVISVP2,2015-07-05 07:30:00,
2015-07-05 03:35:00,79.1,71.8,30.05,WNW,289,7.4,13.0,78,0.00,,,0.00,WUHU216DAVISVP2,2015-07-05 07:35:00,
2015-07-05 03:40:00,79.1,71.8,30.05,WNW,297,7.0,13.0,78,0.00,,,0.00,WUHU216DAVISVP2,2015-07-05 07:40:00,
2015-07-05 03:45:00,79.1,71.8,30.05,WNW,290,9.0,13.0,78,0.00,,,0.00,WUHU216DAVISVP2,2015-07-05 07:45:00,
2015-07-05 03:50:00,79.1,71.8,30.05,WNW,296,5.4,11.0,78,0.00,,,0.00,WUHU216DAVISVP2,2015-07-05 07:50:00,
2015-07-05 03:55:00,79.1,71.8,30.05,WNW,285,6.7,11.0,78,0.00,,,0.00,WUHU216DAVISVP2,2015-07-05 07:55:00,
2015-07-05 04:00:00,79.1,71.8,30.05,WNW,298,8.0,11.0,78,0.00,,,0.00,WUHU216DAVISVP2,2015-07-05 08:00:00,
2015-07-05 04:05:00,79.1,71.8,30.05,WNW,283,5.1,11.0,78,0.00,,,0.00,WUHU216DAVISVP2,2015-07-05 08:05:00,
2015-07-05 04:10:00,79.1,72.2,30.05,NW,307,6.0,11.0,79,0.00,,,0.00,WUHU216DAVISVP2,2015-07-05 08:10:00,
2015-07-05 04:15:00,79.1,72.2,30.05,WNW,286,5.5,11.0,79,0.00,,,0.00,WUHU216DAVISVP2,2015-07-05 08:15:00,
2015-07-05 04:20:00,79.0,72.1,30.05,WNW,298,7.0,11.0,79,0.00,,,0.00,WUHU216DAVISVP2,2015-07-05 08:20:00,
2015-07-05 04:25:00,79.1,72.2,30.05,West,276,6.0,11.0,79,0.00,,,0.00,WUHU216DAVISVP2,2015-07-05 08:25:00,
2015-07-05 04:30:00,79.1,72.4,30.05,WNW,287,6.0,11.0,80,0.00,,,0.00,WUHU216DAVISVP2,2015-07-05 08:30:00,
2015-07-05 04:35:00,79.2,72.5,30.05,West,277,5.3,11.0,80,0.00,,,0.00,WUHU216DAVISVP2,2015-07-05 08:35:00,
2015-07-05 04:40:00,79.1,72.5,30.05,West,281,6.0,11.0,80,0.00,,,0.00,WUHU216DAVISVP2,2015-07-05 08:40:00,
2015-07-05 04:45:00,79.1,72.5,30.06,West,277,4.8,9.0,80,0.00,,,0.00,WUHU216DAVISVP2,2015-07-05 08:45:00,
2015-07-05 04:50:00,79.1,72.5,30.06,West,275,7.1,10.0,80,0.00,,,0.00,WUHU216DAVISVP2,2015-07-05 08:50:00,
2015-07-05 04:55:00,79.2,72.6,30.06,West,267,6.0,10.0,80,0.00,,,0.00,WUHU216DAVISVP2,2015-07-05 08:55:00,
2015-07-05 05:00:00,79.1,72.5,30.06,WNW,290,8.0,10.0,80,0.00,,,0.00,WUHU216DAVISVP2,2015-07-05 09:00:00,
2015-07-05 05:05:00,79.1,72.9,30.06,WNW,283,5.9,10.0,81,0.00,,,0.00,WUHU216DAVISVP2,2015-07-05 09:05:00,
2015-07-05 05:10:00,79.1,72.9,30.06,WNW,295,6.0,10.0,81,0.00,,,0.00,WUHU216DAVISVP2,2015-07-05 09:10:00,
2015-07-05 05:15:00,79.1,72.9,30.06,NW,315,5.0,11.0,81,0.00,,,0.00,WUHU216DAVISVP2,2015-07-05 09:15:00,
2015-07-05 05:20:00,79.0,72.8,30.06,WNW,297,5.0,11.0,81,0.00,,,0.00,WUHU216DAVISVP2,2015-07-05 09:20:00,
2015-07-05 05:25:00,79.0,72.8,30.07,WNW,293,4.9,11.0,81,0.00,,,0.00,WUHU216DAVISVP2,2015-07-05 09:25:00,
2015-07-05 05:30:00,78.9,72.7,30.07,NW,306,5.0,9.0,81,0.00,,,0.00,WUHU216DAVISVP2,2015-07-05 09:30:00,
2015-07-05 05:35:00,78.9,72.9,30.07,NW,311,3.7,8.0,82,0.00,,,0.00,WUHU216DAVISVP2,2015-07-05 09:35:00,
2015-07-05 05:40:00,78.7,72.7,30.07,NW,317,2.0,8.0,82,0.00,,,0.00,WUHU216DAVISVP2,2015-07-05 09:40:00,
2015-07-05 05:45:00,78.5,72.9,30.07,NW,319,2.8,7.0,83,0.00,,,0.00,WUHU216DAVISVP2,2015-07-05 09:45:00,
2015-07-05 05:50:00,78.3,72.8,30.08,NW,322,2.7,5.0,83,0.00,,,0.00,WUHU216DAVISVP2,2015-07-05 09:50:00,
2015-07-05 05:55:00,78.1,72.9,30.08,NNW,331,3.0,4.0,84,0.00,,,0.00,WUHU216DAVISVP2,2015-07-05 09:55:00,
2015-07-05 06:00:00,78.0,72.8,30.08,NW,311,2.4,4.0,84,0.00,,,0.00,WUHU216DAVISVP2,2015-07-05 10:00:00,
2015-07-05 06:05:00,77.6,72.4,30.08,NW,314,4.0,5.0,84,0.00,,,0.00,WUHU216DAVISVP2,2015-07-05 10:05:00,
2015-07-05 06:10:00,77.3,71.8,30.08,NW,315,2.8,5.0,83,0.00,,,0.00,WUHU216DAVISVP2,2015-07-05 10:10:00,
2015-07-05 06:15:00,77.0,71.5,30.08,NW,317,3.0,5.0,83,0.00,,,0.00,WUHU216DAVISVP2,2015-07-05 10:15:00,
2015-07-05 06:20:00,76.8,71.3,30.09,NW,313,2.0,5.0,83,0.00,,,0.00,WUHU216DAVISVP2,2015-07-05 10:20:00,
2015-07-05 06:25:00,76.7,70.9,30.09,NW,313,3.2,4.0,82,0.00,,,0.00,WUHU216DAVISVP2,2015-07-05 10:25:00,
2015-07-05 06:30:00,76.8,70.6,30.09,NW,315,3.8,6.0,81,0.00,,,0.00,WUHU216DAVISVP2,2015-07-05 10:30:00,
2015-07-05 06:35:00,76.9,70.7,30.09,NW,315,3.0,6.0,81,0.00,,,0.00,WUHU216DAVISVP2,2015-07-05 10:35:00,
2015-07-05 06:40:00,76.9,70.6,30.09,NW,308,2.2,6.0,81,0.00,,,0.00,WUHU216DAVISVP2,2015-07-05 10:40:00,
2015-07-05 06:45:00,76.9,70.7,30.10,NW,321,3.0,6.0,81,0.00,,,0.00,WUHU216DAVISVP2,2015-07-05 10:45:00,
2015-07-05 06:50:00,76.9,70.7,30.10,NW,321,2.9,6.0,81,0.00,,,0.00,WUHU216DAVISVP2,2015-07-05 10:50:00,
2015-07-05 06:55:00,76.9,70.4,30.10,NW,315,4.0,6.0,80,0.00,,,0.00,WUHU216DAVISVP2,2015-07-05 10:55:00,
2015-07-05 07:00:00,76.9,70.4,30.10,NW,311,4.0,6.0,80,0.00,,,0.00,WUHU216DAVISVP2,2015-07-05 11:00:00,
2015-07-05 07:05:00,76.9,70.4,30.10,NW,326,6.0,6.0,80,0.00,,,0.00,WUHU216DAVISVP2,2015-07-05 11:05:00,
2015-07-05 07:10:00,77.0,70.5,30.10,NW,309,2.2,6.0,80,0.00,,,0.00,WUHU216DAVISVP2,2015-07-05 11:10:00,
2015-07-05 07:15:00,77.1,70.8,30.10,NW,305,2.4,6.0,81,0.00,,,0.00,WUHU216DAVISVP2,2015-07-05 11:15:00,
2015-07-05 07:20:00,77.1,70.8,30.10,NW,307,2.4,6.0,81,0.00,,,0.00,WUHU216DAVISVP2,2015-07-05 11:20:00,
2015-07-05 07:25:00,77.2,70.9,30.10,NW,307,2.0,5.0,81,0.00,,,0.00,WUHU216DAVISVP2,2015-07-05 11:25:00,
2015-07-05 07:30:00,77.2,71.0,30.11,NW,308,2.4,5.0,81,0.00,,,0.00,WUHU216DAVISVP2,2015-07-05 11:30:00,
2015-07-05 07:35:00,77.2,71.0,30.10,NW,313,2.1,5.0,81,0.00,,,0.00,WUHU216DAVISVP2,2015-07-05 11:35:00,
2015-07-05 07:40:00,77.3,71.5,30.11,NW,318,2.5,5.0,82,0.00,,,0.00,WUHU216DAVISVP2,2015-07-05 11:40:00,
2015-07-05 07:45:00,77.3,71.5,30.11,NW,323,3.0,5.0,82,0.00,,,0.00,WUHU216DAVISVP2,2015-07-05 11:45:00,
2015-07-05 07:50:00,77.4,71.6,30.11,WNW,297,2.0,4.0,82,0.00,,,0.00,WUHU216DAVISVP2,2015-07-05 11:50:00,
2015-07-05 07:55:00,77.4,71.6,30.11,NW,317,2.6,4.0,82,0.00,,,0.00,WUHU216DAVISVP2,2015-07-05 11:55:00,
2015-07-05 08:00:00,77.5,71.7,30.11,NW,309,4.0,4.0,82,0.00,,,0.00,WUHU216DAVISVP2,2015-07-05 12:00:00,
2015-07-05 08:05:00,77.5,71.7,30.11,NW,318,2.1,4.0,82,0.00,,,0.00,WUHU216DAVISVP2,2015-07-05 12:05:00,
2015-07-05 08:10:00,77.5,72.0,30.12,NW,322,4.0,4.0,83,0.00,,,0.00,WUHU216DAVISVP2,2015-07-05 12:10:00,
2015-07-05 08:15:00,77.6,72.1,30.12,NW,310,2.6,4.0,83,0.00,,,0.00,WUHU216DAVISVP2,2015-07-05 12:15:00,
2015-07-05 08:20:00,77.7,72.2,30.12,WNW,300,3.0,4.0,83,0.00,,,0.00,WUHU216DAVISVP2,2015-07-05 12:20:00,
2015-07-05 08:25:00,78.0,72.5,30.12,WNW,291,1.5,4.0,83,0.00,,,0.00,WUHU216DAVISVP2,2015-07-05 12:25:00,
2015-07-05 08:30:00,78.3,72.8,30.12,WNW,285,3.0,4.0,83,0.00,,,0.00,WUHU216DAVISVP2,2015-07-05 12:30:00,
2015-07-05 08:35:00,78.5,73.0,30.12,NW,312,2.0,4.0,83,0.00,,,0.00,WUHU216DAVISVP2,2015-07-05 12:35:00,
2015-07-05 08:40:00,78.6,73.1,30.12,West,271,2.6,5.0,83,0.00,,,0.00,WUHU216DAVISVP2,2015-07-05 12:40:00,
2015-07-05 08:45:00,78.7,73.2,30.13,West,274,4.0,6.0,83,0.00,,,0.00,WUHU216DAVISVP2,2015-07-05 12:45:00,
2015-07-05 08:50:00,78.9,73.7,30.12,NW,305,1.7,6.0,84,0.00,,,0.00,WUHU216DAVISVP2,2015-07-05 12:50:00,
2015-07-05 08:55:00,78.9,73.4,30.13,NW,308,4.4,6.0,83,0.00,,,0.00,WUHU216DAVISVP2,2015-07-05 12:55:00,
2015-07-05 09:00:00,79.0,73.5,30.13,WNW,292,4.2,8.0,83,0.00,,,0.00,WUHU216DAVISVP2,2015-07-05 13:00:00,
2015-07-05 09:05:00,79.1,73.6,30.12,West,276,5.0,8.0,83,0.00,,,0.00,WUHU216DAVISVP2,2015-07-05 13:05:00,
2015-07-05 09:10:00,79.2,73.7,30.12,WNW,297,7.0,8.0,83,0.00,,,0.00,WUHU216DAVISVP2,2015-07-05 13:10:00,
2015-07-05 09:15:00,79.3,73.8,30.12,WNW,301,3.7,8.0,83,0.00,,,0.00,WUHU216DAVISVP2,2015-07-05 13:15:00,
2015-07-05 09:20:00,79.5,74.0,30.12,West,259,4.1,8.0,83,0.00,,,0.00,WUHU216DAVISVP2,2015-07-05 13:20:00,
2015-07-05 09:25:00,79.8,74.2,30.12,WNW,290,4.0,8.0,83,0.00,,,0.00,WUHU216DAVISVP2,2015-07-05 13:25:00,
2015-07-05 09:30:00,80.3,74.7,30.13,WNW,292,7.0,7.0,83,0.00,,,0.00,WUHU216DAVISVP2,2015-07-05 13:30:00,
2015-07-05 09:35:00,80.6,74.2,30.12,West,275,2.6,8.0,81,0.00,,,0.00,WUHU216DAVISVP2,2015-07-05 13:35:00,
2015-07-05 09:40:00,81.0,74.2,30.12,WNW,292,5.2,8.0,80,0.00,,,0.00,WUHU216DAVISVP2,2015-07-05 13:40:00,
2015-07-05 09:45:00,81.4,73.9,30.12,WNW,287,10.0,11.0,78,0.00,,,0.00,WUHU216DAVISVP2,2015-07-05 13:45:00,
2015-07-05 09:50:00,81.9,74.1,30.12,WSW,257,7.2,13.0,77,0.00,,,0.00,WUHU216DAVISVP2,2015-07-05 13:50:00,
2015-07-05 09:55:00,82.4,73.9,30.12,WSW,248,7.0,13.0,75,0.00,,,0.00,WUHU216DAVISVP2,2015-07-05 13:55:00,
2015-07-05 10:00:00,82.5,73.2,30.12,West,274,15.0,15.0,73,0.00,,,0.00,WUHU216DAVISVP2,2015-07-05 14:00:00,
2015-07-05 10:05:00,82.5,72.8,30.12,West,281,12.0,15.0,72,0.00,,,0.00,WUHU216DAVISVP2,2015-07-05 14:05:00,
2015-07-05 10:10:00,82.8,73.1,30.12,WNW,297,10.0,15.0,72,0.00,,,0.00,WUHU216DAVISVP2,2015-07-05 14:10:00,
2015-07-05 10:15:00,83.0,72.9,30.12,WNW,284,11.0,15.0,71,0.00,,,0.00,WUHU216DAVISVP2,2015-07-05 14:15:00,
2015-07-05 10:20:00,82.9,72.8,30.12,WNW,284,9.3,15.0,71,0.00,,,0.00,WUHU216DAVISVP2,2015-07-05 14:20:00,
2015-07-05 10:25:00,82.8,73.1,30.12,West,281,10.9,15.0,72,0.00,,,0.00,WUHU216DAVISVP2,2015-07-05 14:25:00,
2015-07-05 10:30:00,83.1,73.4,30.12,West,259,9.0,14.0,72,0.00,,,0.00,WUHU216DAVISVP2,2015-07-05 14:30:00,
2015-07-05 10:35:00,83.0,73.3,30.11,West,281,10.2,18.0,72,0.00,,,0.00,WUHU216DAVISVP2,2015-07-05 14:35:00,
2015-07-05 10:40:00,83.0,73.0,30.11,West,273,10.8,18.0,72,0.00,,,0.00,WUHU216DAVISVP2,2015-07-05 14:40:00,